Home > Weather > Gdynia > Past weeks

Flag for Poland Weather for the Past 2 Weeks in Gdynia, Poland

Now
63 °F

Sunny.


Feels Like: 63 °F
Forecast: 45 / 59 °F
Wind: 18 mph from Northwest

Location: Gdansk-Rebiechowo

Current Time: May 4, 2016 at 5:41:37 PM

Latest Report: May 4, 2016 at 5:00 PM


Visibility: 10 mi

Pressure: 30.21 "Hg

Humidity: 39%

Dew Point: 37 °F

Location of GdyniaLocation

Historic Weather in Gdynia — Graph

°F

Gdynia Temperature Yesterday

Maximum temperature yesterday: 63 °F (at 12:00 PM)
Minimum temperature yesterday: 37 °F (at 4:00 AM)
Average temperature yesterday: 52 °F

High & Low Weather Summary for the Past Weeks

 TemperatureHumidityPressure
High63 °F (May 3, 12:00 PM)100% (Apr 25, 2:30 AM)30.30 "Hg (Apr 25, 2:30 AM)
Low28 °F (Apr 25, 4:00 AM)29% (May 2, 5:30 PM)29.50 "Hg (Apr 26, 8:00 PM)
Average45 °F67%29.95 "Hg
* Reported Apr 19 4:00 PM — May 4 4:30 PM, Gdynia, Weather by CustomWeather, © 2016

Note: Actual official high and low records may vary slightly from our data, if they occured in-between our weather recording intervals... More about our weather records

Advertising

Gdynia Weather History for the Previous 24 Hours

Scroll right to see more
 ConditionsComfort  
Time TempWeatherWind HumidityBarometerVisibility
4:30 PM
Wed, May 4
63 °FSunny.16 mph37%30.21 "Hg10 mi
4:00 PM63 °FPassing clouds.14 mph37%30.21 "HgN/A
3:30 PM63 °FPassing clouds.12 mph34%30.21 "HgN/A
3:00 PM63 °FPassing clouds.9 mph37%30.21 "HgN/A
2:30 PM63 °FPassing clouds.12 mph39%30.21 "HgN/A
1:30 PM61 °FPassing clouds.12 mph39%30.21 "HgN/A
1:00 PM61 °FSunny.12 mph36%30.18 "Hg10 mi
12:30 PM63 °FSunny.7 mph32%30.18 "Hg10 mi
12:00 PM63 °FPassing clouds.8 mph32%30.18 "HgN/A
11:30 AM59 °FPassing clouds.10 mph36%30.18 "HgN/A
11:00 AM59 °FPassing clouds.9 mph36%30.18 "HgN/A
10:00 AM57 °FSunny.14 mph41%30.15 "Hg10 mi
9:30 AM55 °FPassing clouds.10 mph47%30.15 "HgN/A
9:00 AM55 °FPassing clouds.12 mph51%30.15 "HgN/A
8:30 AM54 °FSunny.14 mph54%30.15 "Hg10 mi
8:00 AM52 °FSunny.13 mph58%30.15 "Hg10 mi
7:30 AM52 °FSunny.10 mph67%30.12 "Hg10 mi
7:00 AM48 °FSunny.10 mph82%30.12 "Hg10 mi
6:30 AM48 °FSunny.13 mph82%30.12 "Hg10 mi
6:00 AM46 °FSunny.9 mph87%30.09 "Hg10 mi
5:30 AM48 °FClear.10 mph82%30.09 "Hg10 mi
5:00 AM46 °FClear.8 mph87%30.09 "Hg10 mi
4:30 AM46 °FClear.3 mph82%30.09 "Hg10 mi
4:00 AM46 °FClear.2 mph82%30.07 "Hg10 mi
3:30 AM46 °FClear.6 mph82%30.07 "Hg10 mi
3:00 AM48 °FClear.6 mph76%30.07 "Hg10 mi
2:30 AM50 °FClear.8 mph76%30.07 "Hg10 mi
2:00 AM50 °FClear.6 mph76%30.07 "Hg10 mi
1:00 AM52 °FClear.6 mph72%30.07 "Hg10 mi
12:30 AM52 °FClear.6 mph72%30.07 "Hg10 mi
12:00 AM52 °FPassing clouds.6 mph72%30.07 "HgN/A
11:30 PM
Tue, May 3
54 °FClear.3 mph67%30.07 "Hg10 mi
11:00 PM52 °FClear.5 mph72%30.07 "Hg10 mi
10:30 PM52 °FPassing clouds.6 mph72%30.04 "HgN/A
10:00 PM54 °FPassing clouds.7 mph67%30.04 "HgN/A
9:30 PM54 °FPassing clouds.3 mph67%30.04 "HgN/A
9:00 PM54 °FPassing clouds.6 mph67%30.04 "HgN/A
8:30 PM55 °FPassing clouds.3 mph59%30.04 "HgN/A
8:00 PM55 °FSunny.7 mph59%30.04 "Hg10 mi
7:30 PM57 °FSunny.7 mph55%30.04 "Hg10 mi
7:00 PM57 °FPassing clouds.7 mph55%30.01 "HgN/A
6:30 PM59 °FPassing clouds.7 mph51%30.01 "HgN/A
6:00 PM57 °FPassing clouds.7 mph55%30.01 "HgN/A
5:30 PM59 °FSunny.13 mph51%30.01 "Hg10 mi
5:00 PM59 °FPassing clouds.13 mph51%30.01 "HgN/A
Weather by CustomWeather, © 2016

See weather overviewHow to use our weather pages